Date String (YYYY-MM-DD hh:mm:ss) UTC,Instrument flags,Ambient pressure (hPa),Sample flow (lpm),Bypass flow (lpm),Sample temperature (°C),Ambient temperature (°C),ASC tube jacket temperature (°C),LED temperature (°C),Box temperature (°C),Sample RH (%),Span deviation,Mass concentration (μg/m³),Mass concentration (μg/m³),Mass concentration (μg/m³)
DateTimeUTC,F1_M11,P_M11,Q1_M11,Q2_M11,T1_M11,T2_M11,T3_M11,T4_M11,T5_M11,U1_M11,ZSPAN_M11,X2_M11,X0_M11,X1_M11
2021-12-17 21:00:00,,0822.4,5.01,0.00,22.4,21.5,00.0,31.5,24.1,06.0,0000.0,0000.35,0000.95,0000.24
2021-12-17 21:01:00,,0822.5,4.99,0.00,22.4,21.5,00.0,31.5,24.1,06.1,0000.0,0000.35,0002.16,0000.24
2021-12-17 21:02:00,,0822.5,5.00,0.00,22.4,21.5,00.0,31.5,24.0,06.1,0000.0,0000.36,0003.51,0000.24
2021-12-17 21:03:00,,0822.5,5.01,0.00,22.4,21.4,00.0,31.5,24.0,06.2,0000.0,0000.40,0003.60,0000.25
2021-12-17 21:04:00,,0822.5,4.98,0.00,22.4,21.4,00.0,31.5,24.0,06.2,0000.0,0000.43,0003.62,0000.25
2021-12-17 21:05:00,,0822.6,5.00,0.00,22.4,21.3,00.0,31.5,23.9,06.2,0000.0,0000.42,0003.55,0000.26
2021-12-17 21:06:00,,0822.6,5.01,0.00,22.4,21.3,00.0,31.4,23.9,06.2,0000.0,0000.42,0003.54,0000.25
2021-12-17 21:07:00,,0822.6,4.99,0.00,22.3,21.3,00.0,31.4,23.9,06.1,0000.0,0000.42,0003.53,0000.26
2021-12-17 21:08:00,,0822.6,5.01,0.00,22.3,21.3,00.0,31.4,23.9,06.1,0000.0,0000.42,0003.53,0000.26
2021-12-17 21:09:00,,0822.7,5.00,0.00,22.3,21.3,00.0,31.4,23.9,06.2,0000.0,0000.42,0003.51,0000.26
2021-12-17 21:10:00,,0822.8,4.99,0.00,22.3,21.3,00.0,31.4,23.9,06.1,0000.0,0000.38,0004.66,0000.25
2021-12-17 21:11:00,,0822.8,5.00,0.00,22.3,21.2,00.0,31.4,23.9,06.1,0000.0,0000.35,0004.48,0000.25
2021-12-17 21:12:00,,0822.8,5.01,0.00,22.3,21.2,00.0,31.4,23.9,06.1,0000.0,0000.36,0003.23,0000.24
2021-12-17 21:13:00,,0822.8,5.00,0.00,22.3,21.1,00.0,31.4,23.8,06.1,0000.0,0000.35,0001.89,0000.24
2021-12-17 21:14:00,,0822.8,5.00,0.00,22.3,21.1,00.0,31.4,23.8,06.1,0000.0,0000.31,0001.79,0000.24
2021-12-17 21:15:00,,0822.7,5.00,0.00,22.3,21.1,00.0,31.4,23.8,06.2,0000.0,0000.28,0001.73,0000.24
2021-12-17 21:16:00,,0822.7,5.00,0.00,22.3,21.3,00.0,31.4,23.9,06.1,0000.0,0000.29,0001.74,0000.23
2021-12-17 21:17:00,,0822.7,5.01,0.00,22.4,22.2,00.0,31.4,24.2,06.1,0000.0,0000.29,0001.75,0000.23
2021-12-17 21:18:00,,0822.9,4.99,0.00,22.5,23.1,00.0,31.5,24.5,06.1,0000.0,0000.30,0001.78,0000.24
2021-12-17 21:19:00,,0823.0,5.01,0.00,22.6,23.2,00.0,31.5,24.6,06.0,0000.0,0000.29,0001.74,0000.23
2021-12-17 21:20:00,,0822.9,5.00,0.00,22.7,22.9,00.0,31.5,24.6,06.1,0000.0,0000.30,0001.77,0000.24
2021-12-17 21:21:00,,0822.9,5.01,0.00,22.7,22.7,00.0,31.5,24.5,06.1,0000.0,0000.34,0000.78,0000.24
2021-12-17 21:22:00,,0822.9,4.99,0.00,22.6,22.4,00.0,31.5,24.4,06.1,0000.0,0000.33,0000.51,0000.24
2021-12-17 21:23:00,,0822.9,5.00,0.00,22.6,22.2,00.0,31.5,24.3,06.1,0000.0,0000.34,0000.61,0000.24
2021-12-17 21:24:00,,0823.0,4.99,0.00,22.6,22.1,00.0,31.5,24.3,06.1,0000.0,0000.37,0002.22,0000.24
2021-12-17 21:25:00,,0823.0,5.00,0.00,22.6,22.0,00.0,31.5,24.2,06.1,0000.0,0000.39,0002.87,0000.25
2021-12-17 21:26:00,,0822.9,5.00,0.00,22.6,22.0,00.0,31.6,24.2,06.1,0000.0,0000.41,0002.98,0000.24
2021-12-17 21:27:00,,0822.9,5.00,0.00,22.6,21.9,00.0,31.6,24.1,06.0,0000.0,0000.42,0003.02,0000.24
2021-12-17 21:28:00,,0822.8,4.99,0.00,22.6,21.9,00.0,31.6,24.2,06.0,0000.0,0000.42,0003.05,0000.24
2021-12-17 21:29:00,,0822.9,5.01,0.00,22.6,21.8,00.0,31.6,24.3,06.0,0000.0,0000.42,0003.87,0000.24
2021-12-17 21:30:00,,0822.9,4.99,0.00,22.6,21.8,00.0,31.6,24.3,05.9,0000.0,0000.41,0004.04,0000.23
2021-12-17 21:31:00,,0822.9,5.01,0.00,22.6,21.8,00.0,31.6,24.3,05.9,0000.0,0000.40,0004.01,0000.23
2021-12-17 21:32:00,,0822.8,4.99,0.00,22.6,21.7,00.0,31.6,24.3,05.9,0000.0,0000.37,0003.95,0000.23
2021-12-17 21:33:00,,0822.9,5.02,0.00,22.5,21.7,00.0,31.6,24.2,05.8,0000.0,0000.37,0003.96,0000.22
2021-12-17 21:34:00,,0823.0,4.99,0.00,22.5,21.6,00.0,31.5,24.2,05.8,0000.0,0000.35,0003.93,0000.22
2021-12-17 21:35:00,,0823.0,5.00,0.00,22.5,21.6,00.0,31.5,24.2,05.9,0000.0,0000.31,0002.48,0000.21
2021-12-17 21:36:00,,0823.0,5.01,0.00,22.5,21.5,00.0,31.5,24.1,06.0,0000.0,0000.30,0001.60,0000.21
2021-12-17 21:37:00,,0823.1,5.00,0.00,22.4,21.5,00.0,31.5,24.0,06.0,0000.0,0000.28,0001.50,0000.20
2021-12-17 21:38:00,,0823.2,4.99,0.00,22.4,21.4,00.0,31.5,23.9,06.0,0000.0,0000.25,0001.42,0000.20
2021-12-17 21:39:00,,0823.1,5.01,0.00,22.4,21.4,00.0,31.5,23.9,06.0,0000.0,0000.26,0001.40,0000.20
2021-12-17 21:40:00,,0823.2,5.00,0.00,22.4,21.4,00.0,31.5,23.9,06.1,0000.0,0000.25,0000.72,0000.19
2021-12-17 21:41:00,,0823.2,5.01,0.00,22.4,21.3,00.0,31.5,23.8,06.1,0000.0,0000.25,0000.39,0000.20
2021-12-17 21:42:00,,0823.2,5.01,0.00,22.3,21.2,00.0,31.4,23.8,06.1,0000.0,0000.28,0000.57,0000.20
2021-12-17 21:43:00,,0823.3,4.99,0.00,22.3,21.2,00.0,31.4,23.9,06.1,0000.0,0000.28,0000.60,0000.20
2021-12-17 21:44:00,,0823.3,4.98,0.00,22.3,21.2,00.0,31.4,23.9,06.2,0000.0,0000.29,0000.69,0000.20
2021-12-17 21:45:00,,0823.2,5.01,0.00,22.3,21.2,00.0,31.4,23.9,06.1,0000.0,0000.29,0001.58,0000.21
2021-12-17 21:46:00,,0823.3,4.99,0.00,22.3,21.2,00.0,31.4,23.9,06.1,0000.0,0000.30,0001.69,0000.21
2021-12-17 21:47:00,,0823.3,5.00,0.00,22.3,21.2,00.0,31.4,23.9,06.2,0000.0,0000.30,0001.67,0000.21
2021-12-17 21:48:00,,0823.2,4.99,0.00,22.3,21.2,00.0,31.4,23.9,06.2,0000.0,0000.30,0001.66,0000.21
2021-12-17 21:49:00,,0823.4,5.01,0.00,22.3,21.2,00.0,31.4,24.0,06.1,0000.0,0000.31,0001.69,0000.22
2021-12-17 21:50:00,,0823.3,4.99,0.00,22.3,21.2,00.0,31.4,23.9,06.2,0000.0,0000.32,0001.71,0000.23
2021-12-17 21:51:00,,0823.3,5.00,0.00,22.3,21.2,00.0,31.4,23.9,06.3,0000.0,0000.33,0001.76,0000.23
2021-12-17 21:52:00,,0823.3,5.00,0.00,22.3,21.1,00.0,31.4,23.8,06.3,0000.0,0000.34,0001.83,0000.23
2021-12-17 21:53:00,,0823.4,5.00,0.00,22.3,21.2,00.0,31.4,23.7,06.4,0000.0,0000.33,0001.70,0000.23
2021-12-17 21:54:00,,0823.4,5.00,0.00,22.2,21.1,00.0,31.3,23.7,06.4,0000.0,0000.31,0001.60,0000.23
2021-12-17 21:55:00,,0823.3,5.01,0.00,22.2,21.0,00.0,31.3,23.7,06.4,0000.0,0000.30,0001.58,0000.23
2021-12-17 21:56:00,,0823.4,5.01,0.00,22.2,21.0,00.0,31.3,23.7,06.5,0000.0,0000.31,0000.76,0000.23
2021-12-17 21:57:00,,0823.5,4.99,0.00,22.2,21.0,00.0,31.3,23.7,06.5,0000.0,0000.31,0000.61,0000.23
2021-12-17 21:58:00,,0823.6,5.02,0.00,22.2,21.0,00.0,31.3,23.6,06.5,0000.0,0000.31,0000.61,0000.22
2021-12-17 21:59:00,,0823.4,4.99,0.00,22.1,21.0,00.0,31.3,23.6,06.5,0000.0,0000.31,0000.62,0000.23
